Lewisburg, WV

6:49 AM EDT on October 21, 2017 (GMT -0400)
Greenbrier Valley

Weather History for KLWB - March, 2013

Change the Weather History Date:

Sunday, March 3, 2013

  Actual Average Record
Temperature  
Mean Temperature 20 °F 35 °F  
Max Temperature 21 °F 47 °F 76 °F (1976)
Min Temperature 19 °F 24 °F 0 °F (1980)
Degree Days  
Heating Degree Days 45    
Month to date heating degree days  
Since 1 July heating degree days  
Cooling Degree Days 0    
Month to date cooling degree days  
Year to date cooling degree days  
Moisture  
Dew Point 12 °F    
Average Humidity 71    
Maximum Humidity 80    
Minimum Humidity 58    
Precipitation  
Precipitation 0.00 in - 1.50 in (1997)
Snow  
Snow 0.00 in - - ()
Month to date snowfall  
Since 1 July snowfall  
Snow Depth -    
Sea Level Pressure  
Sea Level Pressure 29.90 in    
Wind  
Wind Speed 7 mph (WNW)    
Max Wind Speed 13 mph    
Max Gust Speed 21 mph    
Visibility 7 miles    
Events Snow    
T = Trace of Precipitation, MM = Missing Value Source: NWS Daily Summary

Daily Weather History Graph

Daily Weather History Graph

Search for Another Location

Airport or City:

Trip Planner

Search our weather history database for the weather conditions in past years. The results will help you decide how hot, cold, wet, or windy it might be!

Date:

Astronomy

Mar. 03, 2013 Rise Set
Actual Time 6:50 AM EST 6:17 PM EST
Civil Twilight 6:23 AM EST 6:43 PM EST
Nautical Twilight 5:53 AM EST 7:14 PM EST
Astronomical Twilight 5:22 AM EST 7:44 PM EST
Moon No Moon Rise 10:10 AM EST (3/3)
Length of Visible Light 12h 20m
Length of Day
11h 27m
Waning Gibbous, 64% of the Moon is Illuminated
Mar 3
Waning Gibbous
Mar 4
Last Quarter
Mar 11
New
Mar 19
First Quarter
Mar 27
Full

Hourly Weather History & Observations

Time (EST) Temp. Windchill Dew Point Humidity Pressure Visibility Wind Dir Wind Speed Gust Speed Precip Events Conditions
12:15 AM 21.2 °F 13.6 °F 14.0 °F 74% 29.88 in 10.0 mi WNW 5.8 mph - N/A Snow Light Snow
12:35 AM 21.2 °F 14.9 °F 14.0 °F 74% 29.87 in 10.0 mi WNW 4.6 mph - N/A Snow Light Snow
12:55 AM 21.2 °F 12.6 °F 15.8 °F 80% 29.88 in 7.0 mi West 6.9 mph - N/A Snow Light Snow
1:15 AM 21.2 °F 14.9 °F 14.0 °F 74% 29.88 in 7.0 mi West 4.6 mph - N/A Snow Light Snow
1:35 AM 21.2 °F 13.6 °F 14.0 °F 74% 29.88 in 10.0 mi WNW 5.8 mph - N/A Snow Light Snow
1:55 AM 21.2 °F 12.6 °F 14.0 °F 74% 29.88 in 10.0 mi West 6.9 mph - N/A   Overcast
2:15 AM 21.2 °F 12.6 °F 14.0 °F 74% 29.88 in 5.0 mi WNW 6.9 mph - N/A Snow Light Snow
2:35 AM 19.4 °F 12.8 °F 14.0 °F 80% 29.88 in 4.0 mi West 4.6 mph - N/A Snow Light Snow
2:55 AM 19.4 °F 11.5 °F 14.0 °F 80% 29.87 in 7.0 mi WNW 5.8 mph - N/A Snow Light Snow
3:15 AM 19.4 °F 12.8 °F 14.0 °F 80% 29.87 in 7.0 mi West 4.6 mph - N/A Snow Light Snow
3:35 AM 19.4 °F 12.8 °F 14.0 °F 80% 29.87 in 5.0 mi WNW 4.6 mph - N/A Snow Light Snow
3:55 AM 19.4 °F 11.5 °F 14.0 °F 80% 29.87 in 5.0 mi West 5.8 mph - N/A Snow Light Snow
4:15 AM 19.4 °F 10.4 °F 14.0 °F 80% 29.87 in 10.0 mi West 6.9 mph - N/A Snow Light Snow
4:35 AM 19.4 °F 10.4 °F 14.0 °F 80% 29.87 in 7.0 mi WNW 6.9 mph - N/A Snow Light Snow
4:55 AM 19.4 °F 10.4 °F 12.2 °F 74% 29.87 in 5.0 mi WNW 6.9 mph - N/A Snow Light Snow
5:15 AM 19.4 °F 10.4 °F 12.2 °F 74% 29.87 in 7.0 mi NW 6.9 mph - N/A Snow Light Snow
5:35 AM 19.4 °F 10.4 °F 12.2 °F 74% 29.87 in 10.0 mi NW 6.9 mph - N/A Snow Light Snow
5:55 AM 19.4 °F 10.4 °F 12.2 °F 74% 29.87 in 7.0 mi West 6.9 mph - N/A Snow Light Snow
6:15 AM 19.4 °F 12.8 °F 12.2 °F 74% 29.87 in 7.0 mi West 4.6 mph - N/A Snow Light Snow
6:35 AM 19.4 °F 9.5 °F 12.2 °F 74% 29.88 in 5.0 mi NW 8.1 mph - N/A Snow Light Snow
6:55 AM 19.4 °F 14.3 °F 14.0 °F 80% 29.88 in 4.0 mi WNW 3.5 mph - N/A Snow Light Snow
7:15 AM 19.4 °F 12.8 °F 14.0 °F 80% 29.88 in 5.0 mi WNW 4.6 mph - N/A Snow Light Snow
7:35 AM 19.4 °F 12.8 °F 14.0 °F 80% 29.89 in 2.5 mi WNW 4.6 mph - N/A Snow Light Snow
7:55 AM 19.4 °F 10.4 °F 10.4 °F 68% 29.89 in 10.0 mi NW 6.9 mph 19.6 mph N/A Snow Light Snow
8:15 AM 19.4 °F 11.5 °F 14.0 °F 80% 29.90 in 1.8 mi WNW 5.8 mph - N/A Snow Light Snow
8:35 AM 19.4 °F 10.4 °F 12.2 °F 74% 29.90 in 1.8 mi NW 6.9 mph - N/A Snow Light Snow
8:55 AM 19.4 °F 11.5 °F 12.2 °F 74% 29.90 in 5.0 mi NW 5.8 mph - N/A Snow Light Snow
9:15 AM 19.4 °F 9.5 °F 14.0 °F 80% 29.91 in 1.5 mi West 8.1 mph - N/A Snow Light Snow
9:35 AM 19.4 °F 9.5 °F 12.2 °F 74% 29.91 in 1.8 mi West 8.1 mph - N/A Snow Light Snow
9:55 AM 19.4 °F 12.8 °F 14.0 °F 80% 29.90 in 3.0 mi WNW 4.6 mph - N/A Snow Light Snow
10:15 AM 19.4 °F 8.6 °F 12.2 °F 74% 29.90 in 3.0 mi West 9.2 mph - N/A Snow Light Snow
10:35 AM 21.2 °F 13.6 °F 12.2 °F 68% 29.90 in 4.0 mi NW 5.8 mph - N/A Snow Light Snow
10:55 AM 21.2 °F 14.9 °F 12.2 °F 68% 29.90 in 3.0 mi WNW 4.6 mph - N/A Snow Light Snow
11:15 AM 21.2 °F 12.6 °F 12.2 °F 68% 29.90 in 7.0 mi NW 6.9 mph - N/A Snow Light Snow
11:35 AM 21.2 °F 11.7 °F 12.2 °F 68% 29.90 in 7.0 mi WNW 8.1 mph - N/A Snow Light Snow
11:55 AM 21.2 °F 14.9 °F 12.2 °F 68% 29.90 in 3.0 mi WNW 4.6 mph - N/A Snow Light Snow
12:15 PM 21.2 °F 11.7 °F 14.0 °F 74% 29.90 in 7.0 mi NW 8.1 mph - N/A Snow Light Snow
12:35 PM 21.2 °F 10.9 °F 12.2 °F 68% 29.89 in 4.0 mi WNW 9.2 mph - N/A Snow Light Snow
12:55 PM 21.2 °F 10.9 °F 12.2 °F 68% 29.89 in 7.0 mi WNW 9.2 mph - N/A Snow Light Snow
1:15 PM 21.2 °F 13.6 °F 12.2 °F 68% 29.88 in 7.0 mi WNW 5.8 mph - N/A Snow Light Snow
1:35 PM 21.2 °F 11.7 °F 12.2 °F 68% 29.88 in 5.0 mi NW 8.1 mph - N/A Snow Light Snow
1:55 PM 21.2 °F 10.9 °F 12.2 °F 68% 29.88 in 10.0 mi WNW 9.2 mph - N/A Snow Light Snow
2:15 PM 21.2 °F 10.9 °F 12.2 °F 68% 29.87 in 10.0 mi WNW 9.2 mph 16.1 mph N/A Snow Light Snow
2:35 PM 21.2 °F 10.1 °F 10.4 °F 63% 29.87 in 10.0 mi West 10.4 mph 16.1 mph N/A   Overcast
2:55 PM 21.2 °F 10.9 °F 12.2 °F 68% 29.87 in 10.0 mi WNW 9.2 mph 16.1 mph N/A Snow Light Snow
3:15 PM 21.2 °F 12.6 °F 12.2 °F 68% 29.88 in 5.0 mi NW 6.9 mph - N/A Snow Light Snow
3:35 PM 21.2 °F 12.6 °F 12.2 °F 68% 29.88 in 7.0 mi WNW 6.9 mph - N/A Snow Light Snow
3:55 PM 21.2 °F 12.6 °F 10.4 °F 63% 29.89 in 10.0 mi NW 6.9 mph 16.1 mph N/A Snow Light Snow
4:15 PM 21.2 °F 10.9 °F 12.2 °F 68% 29.89 in 5.0 mi NW 9.2 mph 17.3 mph N/A Snow Light Snow
4:35 PM 21.2 °F 10.9 °F 12.2 °F 68% 29.89 in 10.0 mi West 9.2 mph - N/A Snow Light Snow
4:55 PM 21.2 °F 11.7 °F 12.2 °F 68% 29.90 in 7.0 mi WNW 8.1 mph - N/A Snow Light Snow
5:15 PM 21.2 °F 12.6 °F 12.2 °F 68% 29.90 in 7.0 mi WNW 6.9 mph - N/A Snow Light Snow
5:35 PM 21.2 °F 13.6 °F 10.4 °F 63% 29.90 in 10.0 mi NW 5.8 mph - N/A   Overcast
5:55 PM 21.2 °F 14.9 °F 10.4 °F 63% 29.91 in 10.0 mi West 4.6 mph - N/A Snow Light Snow
6:15 PM 21.2 °F 12.6 °F 14.0 °F 74% 29.91 in 7.0 mi NNW 6.9 mph - N/A Snow Light Snow
6:35 PM 21.2 °F 14.9 °F 12.2 °F 68% 29.91 in 10.0 mi West 4.6 mph - N/A Snow Light Snow
6:55 PM 21.2 °F 11.7 °F 14.0 °F 74% 29.91 in 3.0 mi NW 8.1 mph - N/A Snow Light Snow
7:35 PM 21.2 °F 11.7 °F 10.4 °F 63% 29.93 in 10.0 mi WNW 8.1 mph - N/A Snow Light Snow
7:55 PM 21.2 °F 13.6 °F 12.2 °F 68% 29.94 in 7.0 mi WNW 5.8 mph - N/A Snow Light Snow
8:15 PM 19.4 °F 8.6 °F 12.2 °F 74% 29.94 in 10.0 mi WNW 9.2 mph 16.1 mph N/A Snow Light Snow
8:35 PM 19.4 °F 6.6 °F 12.2 °F 74% 29.94 in 10.0 mi WNW 12.7 mph 20.7 mph N/A   Overcast
8:55 PM 19.4 °F 8.6 °F 10.4 °F 68% 29.95 in 10.0 mi WNW 9.2 mph 16.1 mph N/A   Overcast
9:15 PM 19.4 °F 7.2 °F 8.6 °F 63% 29.96 in 10.0 mi WNW 11.5 mph 18.4 mph N/A   Overcast
9:35 PM 19.4 °F 7.2 °F 6.8 °F 58% 29.96 in 10.0 mi NW 11.5 mph 19.6 mph N/A   Overcast
9:55 PM 19.4 °F 9.5 °F 8.6 °F 63% 29.96 in 10.0 mi NW 8.1 mph - N/A   Overcast
10:15 PM 19.4 °F 10.4 °F 8.6 °F 63% 29.95 in 10.0 mi NW 6.9 mph - N/A   Overcast
10:35 PM 19.4 °F 12.8 °F 8.6 °F 63% 29.95 in 10.0 mi NNW 4.6 mph - N/A   Overcast
10:55 PM 19.4 °F 7.9 °F 6.8 °F 58% 29.95 in 10.0 mi NNW 10.4 mph 16.1 mph N/A   Overcast
11:15 PM 19.4 °F 11.5 °F 6.8 °F 58% 29.95 in 10.0 mi NNW 5.8 mph 10.4 mph N/A   Overcast
11:35 PM 19.4 °F 9.5 °F 6.8 °F 58% 29.95 in 10.0 mi NNW 8.1 mph - N/A   Overcast
11:55 PM 19.4 °F 8.6 °F 6.8 °F 58% 29.95 in 10.0 mi NNW 9.2 mph - N/A   Overcast